Location: Unspecified
(0.0000°N, 0.0000°E)
Time: 09:11:01
(UTC+00:00)

A-11 Canister half - Visible Passes

Search period start: 03 April 2020 00:00
Search period end: 13 April 2020 00:00
Orbit: 1524 x 1685 km, 47.3° (Epoch: 02 April)

Date Brightness Start Highest point End Pass type
(mag) Time Alt. Az. Time Alt. Az. Time Alt. Az.
03 Apr 9.2 18:56:49 10° SSW 19:06:28 57° SE 19:16:19 10° NE visible
03 Apr 10.3 21:02:56 10° WSW 21:11:30 32° NW 21:14:54 27° NNW visible
04 Apr 9.3 18:35:16 10° SSW 18:44:48 53° SE 18:54:32 10° NE visible
04 Apr 10.3 20:41:04 10° WSW 20:49:48 35° NW 20:56:52 16° N visible
05 Apr 11.2 05:24:58 10° N 05:31:51 22° NE 05:38:35 10° E visible
05 Apr 9.4 18:13:44 10° SSW 18:23:09 50° SE 18:32:44 10° ENE visible
05 Apr 10.2 20:19:13 10° WSW 20:28:07 37° NW 20:37:11 10° NNE visible
06 Apr 11.2 05:03:37 10° N 05:10:10 20° NE 05:16:33 10° E visible
06 Apr 10.2 19:57:24 10° WSW 20:06:26 40° NW 20:15:41 10° NNE visible
07 Apr 11.2 04:42:18 10° N 04:48:28 18° NE 04:54:29 10° E visible
07 Apr 10.1 19:35:35 10° WSW 19:44:45 43° NW 19:54:08 10° NNE visible
08 Apr 11.2 04:21:01 10° N 04:26:46 17° NE 04:32:23 10° E visible
08 Apr 10.1 19:13:47 10° WSW 19:23:04 46° NW 19:32:36 10° NNE visible
09 Apr 11.3 03:59:47 10° NNE 04:05:03 16° NE 04:10:12 10° ENE visible
09 Apr 10.0 18:52:01 10° WSW 19:01:23 49° NW 19:11:02 10° NNE visible
10 Apr 11.3 03:38:38 10° NNE 03:43:20 14° NE 03:47:56 10° ENE visible
10 Apr 10.0 18:30:16 10° SW 18:39:43 52° NW 18:49:27 10° NNE visible
11 Apr 11.3 03:17:35 10° NNE 03:21:36 13° NE 03:25:33 10° ENE visible
11 Apr 9.3 05:17:26 10° NNW 05:27:07 73° NE 05:36:29 10° SE visible
11 Apr 9.9 18:08:33 10° SW 18:18:03 56° NW 18:27:52 10° NNE visible
12 Apr 11.3 02:56:42 10° NNE 02:59:51 12° NE 03:02:59 10° ENE visible
12 Apr 9.4 04:55:49 10° NNW 05:05:29 68° NE 05:14:49 10° SE visible
